Stations météo

réclame
Mon MeteoGroup
Badajoz/Talavera La Real, Espagne (8330): Température de l'air & dewpoint: 08.08.2018 19:00:00 - 14.08.2018 19:00:00 (CEST)Badajoz/Talavera La Real, Espagne (8330): Vitesse du vent: 08.08.2018 19:00:00 - 14.08.2018 19:00:00 (CEST)Badajoz/Talavera La Real, Espagne (8330): Direction du vent: 08.08.2018 19:00:00 - 14.08.2018 19:00:00 (CEST)Badajoz/Talavera La Real, Espagne (8330): reduced air pressure: 08.08.2018 19:00:00 - 14.08.2018 19:00:00 (CEST)Badajoz/Talavera La Real, Espagne (8330): visibility: 08.08.2018 19:00:00 - 14.08.2018 19:00:00 (CEST)Badajoz/Talavera La Real, Espagne (8330): Quantités de précipitations: 08.08.2018 19:00:00 - 14.08.2018 19:00:00 (CEST)
Date & Time tt [°C] td [°C] ff [km/h] ff [knt] dd ppp [hPa] vv [km] rr [mm]
14.08.2018 19:00:00 34,6 6,8 11 6 WNW 1013,2 - 0,0
14.08.2018 18:00:00 34,5 9,7 9 5 NW 1013,7 - 0,0
14.08.2018 17:00:00 33,8 7,0 8 4 NNE 1014,2 30 -
14.08.2018 16:00:00 32,5 11,1 9 5 NNW 1014,8 - 0,0
14.08.2018 15:00:00 30,6 13,4 5 3 ENE 1015,4 - 0,0
14.08.2018 14:00:00 28,7 14,1 8 4 NE 1016,2 30 -
14.08.2018 13:00:00 26,5 14,6 8 4 N 1016,5 - 0,0
14.08.2018 12:00:00 24,4 14,2 5 3 W 1017,0 - 0,0
14.08.2018 11:00:00 21,3 14,2 4 2 SSE 1017,0 - -
14.08.2018 10:00:00 18,4 13,9 5 3 WNW 1017,1 - 0,0
14.08.2018 09:00:00 17,0 13,3 4 2 WSW 1017,1 - 0,0
14.08.2018 08:00:00 15,2 12,7 4 2 SSW 1017,0 30 -
14.08.2018 07:00:00 15,5 12,8 4 2 W 1016,5 - 0,0
14.08.2018 06:00:00 16,2 13,1 4 2 SW 1016,2 - 0,0
14.08.2018 05:00:00 16,5 13,0 5 3 W 1016,2 - -
14.08.2018 04:00:00 17,3 12,6 4 2 WSW 1015,8 - 0,0
14.08.2018 03:00:00 18,5 12,7 4 2 SW 1015,8 - 0,0
14.08.2018 02:00:00 20,0 13,2 8 4 W 1015,6 - -
14.08.2018 01:00:00 20,8 12,7 13 7 WSW 1015,5 - 0,0
14.08.2018 00:00:00 21,9 12,2 11 6 W 1015,1 - 0,0
13.08.2018 23:00:00 23,9 10,6 15 8 W 1014,3 - -
13.08.2018 22:00:00 26,0 10,2 15 8 W 1013,3 - 0,0
13.08.2018 21:00:00 29,0 8,6 16 9 W 1012,6 - 0,0
13.08.2018 20:00:00 31,8 6,1 18 10 W 1012,2 35 -
13.08.2018 19:00:00 33,3 5,8 16 9 W 1012,0 - 0,0
13.08.2018 18:00:00 33,6 8,3 16 9 W 1012,2 - 0,0
13.08.2018 17:00:00 33,1 9,2 16 9 W 1012,8 35 -
13.08.2018 16:00:00 32,4 10,4 13 7 W 1013,3 - 0,0
13.08.2018 15:00:00 30,9 10,8 13 7 W 1014,1 - 0,0
13.08.2018 14:00:00 28,3 14,2 13 7 WNW 1014,9 35 -
13.08.2018 13:00:00 26,0 16,0 15 8 WNW 1015,8 - 0,0
13.08.2018 12:00:00 24,4 16,1 15 8 WNW 1016,4 - 0,0
13.08.2018 11:00:00 24,0 16,3 11 6 W 1016,4 35 -
13.08.2018 10:00:00 22,5 16,5 11 6 W 1016,2 - 0,0
13.08.2018 09:00:00 20,9 16,7 11 6 W 1016,0 - 0,0
13.08.2018 08:00:00 18,8 16,4 8 4 W 1015,7 35 -
13.08.2018 07:00:00 18,8 16,4 11 6 W 1014,9 - 0,0
13.08.2018 06:00:00 19,0 16,4 11 6 W 1014,9 - 0,0
13.08.2018 05:00:00 19,4 16,2 9 5 W 1015,0 - -
13.08.2018 04:00:00 19,4 15,9 11 6 W 1015,2 - 0,0
13.08.2018 03:00:00 20,3 15,1 9 5 W 1015,1 - 0,0
13.08.2018 02:00:00 21,3 14,2 11 6 W 1015,1 - -
13.08.2018 01:00:00 22,6 14,9 16 9 W 1014,8 - 0,0
13.08.2018 00:00:00 25,0 14,8 9 5 W 1014,5 - 0,0
12.08.2018 23:00:00 25,9 14,7 11 6 W 1014,1 - -
12.08.2018 22:00:00 27,8 13,0 15 8 W 1013,2 - 0,0
12.08.2018 21:00:00 30,5 11,9 18 10 WNW 1012,4 - 0,0
12.08.2018 20:00:00 33,2 11,1 24 13 WNW 1012,0 25 -
12.08.2018 19:00:00 34,9 11,3 22 12 WNW 1012,1 - 0,0
12.08.2018 18:00:00 35,9 10,2 22 12 W 1012,2 - 0,0
12.08.2018 17:00:00 36,6 10,0 22 12 WNW 1012,5 25 -
12.08.2018 16:00:00 36,1 9,6 18 10 NW 1013,1 - 0,0
12.08.2018 15:00:00 35,7 9,3 18 10 WNW 1013,6 - 0,0
12.08.2018 14:00:00 34,3 10,8 15 8 NW 1014,3 25 -
12.08.2018 13:00:00 33,0 10,9 5 3 W 1014,9 - 0,0
12.08.2018 12:00:00 29,7 11,7 5 3 W 1015,5 - 0,0
12.08.2018 11:00:00 26,2 12,3 8 4 WNW 1015,7 25 -
12.08.2018 10:00:00 23,1 11,5 5 3 WNW 1015,9 - 0,0
12.08.2018 09:00:00 20,5 11,4 9 5 W 1016,0 - 0,0
12.08.2018 08:00:00 18,9 12,2 5 3 W 1015,8 25 -
12.08.2018 07:00:00 20,5 10,6 8 4 WSW 1015,3 - 0,0
12.08.2018 06:00:00 20,6 11,5 2 1 WSW 1015,3 - 0,0
12.08.2018 05:00:00 23,0 11,1 8 4 W 1014,9 - -
12.08.2018 04:00:00 24,0 11,3 9 5 W 1015,1 - 0,0
12.08.2018 03:00:00 25,0 10,5 9 5 W 1015,4 - 0,0
12.08.2018 02:00:00 25,7 10,7 8 4 WSW 1015,9 - -
12.08.2018 01:00:00 26,2 11,5 9 5 W 1015,8 - 0,0
12.08.2018 00:00:00 27,9 12,7 11 6 W 1015,4 - 0,0
11.08.2018 23:00:00 29,6 10,2 13 7 W 1015,1 - -
11.08.2018 22:00:00 31,8 11,0 4 2 SSW 1014,1 - 0,0
11.08.2018 21:00:00 35,2 10,3 5 3 WNW 1013,7 - 0,0
11.08.2018 20:00:00 36,7 9,3 9 5 W 1013,7 25 -
11.08.2018 19:00:00 37,2 10,5 8 4 W 1014,0 - 0,0
11.08.2018 18:00:00 37,3 12,0 9 5 WNW 1014,4 - 0,0
11.08.2018 17:00:00 36,5 12,0 9 5 N 1015,0 25 -
11.08.2018 16:00:00 36,1 11,7 9 5 NNE 1015,9 - 0,0
11.08.2018 15:00:00 35,3 10,4 8 4 N 1016,8 - 0,0
11.08.2018 14:00:00 33,1 12,1 8 4 NNE 1017,6 30 -
11.08.2018 13:00:00 30,4 14,1 5 3 NE 1018,5 - 0,0
11.08.2018 12:00:00 27,7 13,2 8 4 E 1019,1 - 0,0
11.08.2018 11:00:00 24,3 13,5 5 3 E 1019,4 25 -
11.08.2018 10:00:00 20,9 12,6 5 3 NNW 1019,8 - 0,0
11.08.2018 09:00:00 18,5 12,3 5 3 NW 1019,9 - 0,0
11.08.2018 08:00:00 16,8 11,5 4 2 W 1019,8 25 -
11.08.2018 07:00:00 17,8 11,4 4 2 W 1019,2 - 0,0
11.08.2018 06:00:00 18,6 11,7 5 3 W 1019,0 - 0,0
11.08.2018 05:00:00 19,5 11,5 8 4 W 1018,6 - -
11.08.2018 04:00:00 20,0 11,7 8 4 W 1019,1 - 0,0
11.08.2018 03:00:00 20,8 11,7 13 7 W 1019,0 - 0,0
11.08.2018 02:00:00 22,8 11,5 8 4 W 1019,4 - -
11.08.2018 01:00:00 24,6 11,9 9 5 W 1019,0 - 0,0
11.08.2018 00:00:00 25,7 11,8 8 4 W 1018,2 - 0,0
10.08.2018 23:00:00 26,6 -1,3 5 3 W 1017,5 - -
10.08.2018 22:00:00 28,4 5,9 4 2 WSW 1016,7 - 0,0
10.08.2018 21:00:00 31,6 1,8 8 4 WNW 1016,0 - 0,0
10.08.2018 20:00:00 34,2 -4,8 5 3 WNW 1016,1 30 -
10.08.2018 19:00:00 34,2 -8,5 5 3 NNE 1016,5 - 0,0
10.08.2018 18:00:00 33,8 -2,1 8 4 N 1016,7 - 0,0
10.08.2018 17:00:00 33,5 1,3 8 4 N 1016,9 30 -
10.08.2018 16:00:00 32,9 1,9 9 5 NW 1017,6 - 0,0
10.08.2018 15:00:00 31,9 2,9 9 5 N 1018,0 - 0,0
10.08.2018 14:00:00 30,0 8,4 4 2 NW 1018,4 30 -
10.08.2018 13:00:00 28,1 9,4 5 3 NW 1018,8 - 0,0
10.08.2018 12:00:00 25,4 9,6 4 2 ESE 1019,3 - 0,0
10.08.2018 11:00:00 22,3 10,4 5 3 NW 1019,3 30 -
10.08.2018 10:00:00 19,9 10,9 5 3 W 1019,5 - 0,0
10.08.2018 09:00:00 16,9 11,2 5 3 WNW 1019,5 - 0,0
10.08.2018 08:00:00 15,1 10,3 4 2 S 1019,5 30 -
10.08.2018 07:00:00 15,8 10,3 5 3 WSW 1018,9 - 0,0
10.08.2018 06:00:00 17,0 10,4 8 4 W 1018,6 - 0,0
10.08.2018 05:00:00 17,5 10,8 8 4 W 1018,6 - -
10.08.2018 04:00:00 18,4 10,7 8 4 W 1018,3 - 0,0
10.08.2018 03:00:00 19,5 11,3 11 6 W 1018,4 - 0,0
10.08.2018 02:00:00 20,3 11,5 9 5 W 1018,5 - -
10.08.2018 01:00:00 20,8 12,0 13 7 W 1018,1 - 0,0
10.08.2018 00:00:00 22,1 12,1 13 7 W 1017,6 - 0,0
09.08.2018 23:00:00 23,9 12,2 13 7 W 1016,9 - -
09.08.2018 22:00:00 25,9 3,8 13 7 WNW 1015,8 - 0,0
09.08.2018 21:00:00 28,9 3,0 13 7 NW 1015,3 - 0,0
09.08.2018 20:00:00 31,1 0,4 16 9 WNW 1015,0 25 -
09.08.2018 19:00:00 31,9 -1,1 15 8 WNW 1015,1 - 0,0
09.08.2018 18:00:00 32,1 2,2 16 9 WNW 1015,2 - 0,0
09.08.2018 17:00:00 31,5 2,6 13 7 WNW 1015,7 30 -
09.08.2018 16:00:00 30,4 9,3 9 5 SW 1016,4 - 0,0
09.08.2018 15:00:00 29,6 8,1 9 5 WNW 1016,8 - 0,0
09.08.2018 14:00:00 28,2 8,5 16 9 WNW 1017,2 30 -
09.08.2018 13:00:00 26,5 9,8 16 9 WNW 1017,4 - 0,0
09.08.2018 12:00:00 25,0 11,5 13 7 W 1017,7 - 0,0
09.08.2018 11:00:00 21,8 13,4 13 7 WNW 1017,6 30 -
09.08.2018 10:00:00 20,0 14,1 16 9 W 1017,8 - 0,0
09.08.2018 09:00:00 18,2 14,7 15 8 W 1017,5 - 0,0
09.08.2018 08:00:00 16,6 14,2 11 6 W 1016,8 25 -
09.08.2018 07:00:00 16,8 14,4 13 7 W 1016,2 - 0,0
09.08.2018 06:00:00 17,4 14,3 13 7 W 1016,1 - 0,0
09.08.2018 05:00:00 18,0 14,3 9 5 W 1015,6 - -
09.08.2018 04:00:00 18,3 14,2 15 8 W 1015,5 - 0,0
09.08.2018 03:00:00 18,7 14,0 13 7 W 1015,5 - 0,0
09.08.2018 02:00:00 19,8 13,7 15 8 W 1015,3 - -
09.08.2018 01:00:00 21,0 13,7 13 7 W 1015,1 - 0,0
09.08.2018 00:00:00 22,1 13,4 11 6 W 1014,5 - 0,0
08.08.2018 23:00:00 23,7 13,0 15 8 W 1013,8 - -
08.08.2018 22:00:00 25,2 12,1 15 8 W 1012,5 - 0,0
08.08.2018 21:00:00 27,5 8,4 18 10 W 1011,3 - 0,0
08.08.2018 20:00:00 29,6 6,9 24 13 W 1010,7 25 -
08.08.2018 19:00:00 31,3 4,9 26 14 WNW 1010,3 - 0,0

tt = Température de l'air
td = dewpoint
ff = Vitesse du vent
dd = Direction du vent
ppp = reduced air pressure
vv = visibility
rr = Quantités de précipitations

stations d'obs. à proximité